Morrisville, VT

3:27 AM EST on January 20, 2018 (GMT -0500)
Morrisville Stowe State

Weather History for KMVL - January, 2014

Change the Weather History Date:

Friday, January 31, 2014

  Actual Average Record
Temperature  
Mean Temperature 27 °F 16 °F  
Max Temperature 33 °F 27 °F 52 °F (2016)
Min Temperature 21 °F 4 °F -20 °F (1999)
Degree Days  
Heating Degree Days 38 49  
Month to date heating degree days 1551 1527  
Since 1 July heating degree days 4695 4662  
Cooling Degree Days 0 0  
Month to date cooling degree days 0 0  
Year to date cooling degree days 0 0  
Moisture  
Dew Point 10 °F    
Average Humidity 46    
Maximum Humidity 58    
Minimum Humidity 33    
Precipitation  
Precipitation 0.00 in 0.07 in 0.47 in (2013)
Month to date precipitation 2.41 2.54  
Year to date precipitation 2.41 2.54  
Sea Level Pressure  
Sea Level Pressure 30.02 in    
Wind  
Wind Speed 5 mph (SW)    
Max Wind Speed 16 mph    
Max Gust Speed 22 mph    
Visibility 10 miles    
Events      
T = Trace of Precipitation, MM = Missing Value Source: NWS Daily Summary

Daily Weather History Graph

Daily Weather History Graph

Search for Another Location

Airport or City:

Trip Planner

Search our weather history database for the weather conditions in past years. The results will help you decide how hot, cold, wet, or windy it might be!

Date:

Astronomy

Jan. 31, 2014 Rise Set
Actual Time 7:10 AM EST 4:58 PM EST
Civil Twilight 6:39 AM EST 5:29 PM EST
Nautical Twilight 6:04 AM EST 6:04 PM EST
Astronomical Twilight 5:30 AM EST 6:38 PM EST
Moon 7:14 AM EST (1/31) 6:24 PM EST (1/31)
Length of Visible Light 10h 50m
Length of Day
9h 47m
New Moon, 1% of the Moon is Illuminated
Jan 31
New Moon
Feb 6
First Quarter
Feb 14
Full
Feb 22
Last Quarter
Mar 1
New

Hourly Weather History & Observations

Time (EST) Temp. Windchill Dew Point Humidity Pressure Visibility Wind Dir Wind Speed Gust Speed Precip Events Conditions
12:54 AM 21.9 °F 15.7 °F 1.9 °F 42% 29.96 in 10.0 mi Variable 4.6 mph - N/A   Clear
1:54 AM 21.0 °F - 3.9 °F 48% 29.96 in 10.0 mi Calm Calm - N/A   Overcast
2:54 AM 21.0 °F 16.2 °F 3.9 °F 48% 29.95 in 10.0 mi West 3.5 mph - N/A   Partly Cloudy
3:54 AM 25.0 °F 15.5 °F -0.0 °F 34% 29.93 in 10.0 mi SSW 9.2 mph - N/A   Overcast
4:54 AM 24.1 °F - 1.0 °F 37% 29.93 in 10.0 mi Calm Calm - N/A   Overcast
5:54 AM 26.1 °F 21.9 °F 1.0 °F 34% 29.93 in 10.0 mi Variable 3.5 mph - N/A   Overcast
6:54 AM 26.1 °F 17.6 °F 1.9 °F 35% 29.95 in 10.0 mi SSW 8.1 mph - N/A   Overcast
7:54 AM 26.1 °F - 1.9 °F 35% 29.96 in 10.0 mi Calm Calm - N/A   Overcast
8:54 AM 27.0 °F 18.7 °F 3.9 °F 37% 29.97 in 10.0 mi SSW 8.1 mph - N/A   Overcast
9:54 AM 30.0 °F 19.1 °F 7.0 °F 38% 29.99 in 10.0 mi SSW 15.0 mph 21.9 mph N/A   Overcast
10:54 AM 30.9 °F 23.5 °F 10.0 °F 42% 30.01 in 10.0 mi SSW 8.1 mph 20.7 mph N/A   Overcast
11:54 AM 32.0 °F 24.8 °F 12.0 °F 44% 30.00 in 10.0 mi SSW 8.1 mph - N/A   Mostly Cloudy
12:54 PM 32.0 °F 27.5 °F 14.0 °F 48% 30.00 in 10.0 mi WSW 4.6 mph - N/A   Overcast
1:54 PM 32.0 °F 26.4 °F 17.1 °F 54% 30.01 in 10.0 mi SSW 5.8 mph - N/A   Overcast
2:54 PM 32.0 °F 28.7 °F 17.1 °F 54% 30.02 in 10.0 mi SSW 3.5 mph - N/A   Overcast
3:54 PM 32.0 °F 26.4 °F 16.0 °F 52% 30.04 in 10.0 mi SW 5.8 mph - N/A   Partly Cloudy
4:54 PM 32.0 °F 28.7 °F 16.0 °F 52% 30.05 in 10.0 mi Variable 3.5 mph - N/A   Overcast
5:54 PM 30.9 °F - 15.1 °F 52% 30.08 in 10.0 mi Calm Calm - N/A   Scattered Clouds
6:54 PM 32.0 °F 28.7 °F 16.0 °F 52% 30.09 in 10.0 mi Variable 3.5 mph - N/A   Clear
7:54 PM 32.0 °F 27.5 °F 16.0 °F 52% 30.12 in 10.0 mi Variable 4.6 mph - N/A   Clear
8:54 PM 32.0 °F 27.5 °F 16.0 °F 52% 30.13 in 10.0 mi WSW 4.6 mph - N/A   Clear
9:54 PM 28.9 °F - 16.0 °F 58% 30.15 in 10.0 mi Calm Calm - N/A   Clear
10:54 PM 28.9 °F 25.2 °F 15.1 °F 56% 30.16 in 8.0 mi Variable 3.5 mph - N/A   Clear
11:54 PM 26.1 °F - 15.1 °F 63% 30.17 in 10.0 mi Calm Calm - N/A   Clear